Flight Track Log - Related Links

Times and Time Zones

All times are in EST time to prevent confusion due to time zone crossing. See the EJA583 flight status page for this flight to view local times or setup timezone preferences in your user account.

Time Position Orientation Groundspeed Altitude Reporting Facility
EST Latitude Longitude Course Direction KTS MPH feet Rate Location/Type
Tue 09:17:33 AM 30.4825 -85.8647 270° West 254 292 7,500  Level Jacksonville Center
Tue 09:18:33 AM 30.5458 -85.9147 326° Northwest 254 292 10,800 2,950 Climbing Jacksonville Center
Tue 09:19:33 AM 30.6094 -85.9675 324° Northwest 265 305 13,400 1,650 Climbing Jacksonville Center
Tue 09:20:33 AM 30.6831 -86.0253 326° Northwest 294 338 14,100 350 Climbing Jacksonville Center
Tue 09:21:00 AM 30.9776 -86.9511 270° West  Level Estimated
Tue 09:21:33 AM 30.7650 -86.0861 327° Northwest 326 375 14,100  Level Jacksonville Center
Tue 09:22:33 AM 30.8492 -86.1447 329° Northwest 337 388 14,100  Level Jacksonville Center
Tue 09:23:33 AM 30.9292 -86.2031 328° Northwest 343 395 14,100  Level Jacksonville Center
Tue 09:24:33 AM 31.0131 -86.2642 328° Northwest 348 400 14,100  Level Jacksonville Center
Tue 09:25:33 AM 31.0869 -86.3178 328° Northwest 348 400 14,100  Level Jacksonville Center
Tue 09:26:33 AM 31.1686 -86.3789 327° Northwest 348 400 14,100  Level Jacksonville Center
Tue 09:27:33 AM 31.2486 -86.4378 328° Northwest 348 400 14,100  Level Jacksonville Center
Tue 09:28:33 AM 31.3322 -86.5019 327° Northwest 343 395 14,100  Level Jacksonville Center
Tue 09:29:33 AM 31.4142 -86.5608 328° Northwest 343 395 14,100  Level Jacksonville Center
Tue 09:31:45 AM 31.5586 -86.7342 314° West 338 389 14,100  Level Atlanta Center
Tue 09:32:45 AM 31.5500 -86.8461 265° West 333 383 14,100  Level Atlanta Center
Tue 09:33:45 AM 31.5392 -86.9531 263° West 333 383 14,100  Level Atlanta Center
Tue 09:34:45 AM 31.5322 -87.0647 266° West 333 383 14,100  Level Atlanta Center
Tue 09:35:45 AM 31.5233 -87.1742 265° West 338 389 14,100  Level Atlanta Center
Tue 09:36:44 AM 31.5164 -87.2811 266° West 343 395 14,100  Level Atlanta Center
Tue 09:37:44 AM 31.5069 -87.3928 264° West 343 395 14,100 -850 Level Atlanta Center
Tue 09:38:44 AM 31.5019 -87.4972 267° West 343 395 12,400 -1,850 Descending Atlanta Center
Tue 09:39:44 AM 31.4908 -87.5992 263° West 338 389 10,400 -1,960 Descending Atlanta Center
Tue 09:41:14 AM 31.4839 -87.7161 266° West 280 322 7,500 -1,311 Descending Houston Center
Tue 09:42:15 AM 31.4769 -87.7972 264° West 274 315 7,100 -393 Descending Houston Center

Login

Don't have an account? Register now (free) for customized features, flight alerts, and more!